This is the latest recevied weather packets stored in our database for station/object OE6ACM-10. If no packets are shown the sender has not sent any weather packets the latest 10 day(s).
| Time | Temp. | Humidity | Pressure | Rain* | Wind** | Luminosity | Snow |
|---|---|---|---|---|---|---|---|
| 1787409860 | 32.78° C | 92% | 928.8 hPa | - | - | - | - |
| 1787409560 | 30° C | 100% | 928.7 hPa | - | - | - | - |
| 1787409260 | 28.33° C | 100% | 928.8 hPa | - | - | - | - |
| 1787408960 | 28.89° C | 100% | 928.6 hPa | - | - | - | - |
| 1787408660 | 28.89° C | 100% | 928.7 hPa | - | - | - | - |
| 1787408360 | 30° C | 100% | 928.6 hPa | - | - | - | - |
| 1787408060 | 30° C | 100% | 928.5 hPa | - | - | - | - |
| 1787407760 | 31.11° C | 88% | 928.5 hPa | - | - | - | - |
| 1787407460 | 32.78° C | 86% | 928.3 hPa | - | - | - | - |
| 1787407160 | 33.89° C | 88% | 928.4 hPa | - | - | - | - |
| 1787406860 | 33.89° C | 85% | 928.4 hPa | - | - | - | - |
| 1787406560 | 33.33° C | 89% | 928.3 hPa | - | - | - | - |
| 1787406260 | 33.33° C | 80% | 928.2 hPa | - | - | - | - |
| 1787405960 | 32.78° C | 95% | 928.2 hPa | - | - | - | - |
| 1787405660 | 31.67° C | 100% | 928.3 hPa | - | - | - | - |
| 1787405360 | 31.67° C | 100% | 928.3 hPa | - | - | - | - |
| 1787405060 | 30.56° C | 100% | 928.3 hPa | - | - | - | - |
| 1787404760 | 29.44° C | 100% | 928.2 hPa | - | - | - | - |
| 1787404460 | 29.44° C | 100% | 928.2 hPa | - | - | - | - |
| 1787404160 | 29.44° C | 100% | 928.2 hPa | - | - | - | - |
| 1787403860 | 27.78° C | 100% | 928.1 hPa | - | - | - | - |
| 1787403560 | 27.22° C | 100% | 928.4 hPa | - | - | - | - |
| 1787403260 | 28.33° C | 100% | 928.2 hPa | - | - | - | - |
| 1787402960 | 28.33° C | 100% | 928.3 hPa | - | - | - | - |
| 1787402660 | 27.78° C | 100% | 928.3 hPa | - | - | - | - |
* Rain since midnight (hover to see other rain measurements)
** Current wind speed in m/s (hover to see current wind gust speed)